sim
Sign-in with your pilot id or email,
or register
Callsign
Passwort

Schedule Details

Flight Number: UAE9819 (B)
Departure: Mumbai Chhatrapati Shivaji International Airport (VABB) at 18:25
Arrival: Ahmedabad International Airport (VAAH) at 19:40
Route: Emirates Cargo Schedule. Enter filed route here before submitting Pirep.

Weather Information
Getting current METAR information for VABB 091530Z 33006KT 3000 HZ NSC 29/23 Q1014 NOSIG
Getting current METAR information for VAAH 091530Z 00000KT 4000 FU NSC 21/14 Q1016 NOSIG

Schedule Frequency

Route Map